GFSNIL_sfc_rhum_153.txt.gz
RH
89 92 90 84 83 84 84 83 80 69 66 63 68 73 72 90 93 91 93 90 94 92
89 90 87 82 83 84 82 73 73 62 62 63 68 70 68 81 86 91 91 92 91 93
85 87 86 84 83 82 79 76 63 61 62 64 67 71 69 77 85 86 90 89 85 92
85 88 88 86 83 80 77 70 65 62 62 63 65 69 70 73 78 82 82 82 82 84
89 91 92 89 84 79 74 68 64 63 63 62 66 69 70 69 70 80 83 82 83 82
92 93 92 90 86 79 73 65 62 61 62 62 66 69 72 68 70 75 81 82 84 82
92 92 93 92 89 82 74 65 60 58 56 59 60 66 70 69 70 70 76 79 83 83
90 92 93 93 92 85 76 69 63 57 54 53 53 59 74 72 75 74 71 79 79 82
87 90 92 93 93 88 79 70 64 62 61 66 49 59 66 70 72 71 73 78 77 70
79 85 87 90 92 90 84 76 66 63 64 60 60 59 64 70 73 77 77 77 74 68
82 84 85 88 91 90 84 76 72 65 62 59 58 59 63 69 81 80 80 76 74 72
83 85 87 89 89 88 82 78 73 66 66 65 60 62 64 70 78 78 83 71 68 68
81 84 86 88 88 91 84 79 80 72 71 65 61 62 64 74 83 92 98 77 63 63
79 86 88 92 92 93 92 91 86 81 76 72 65 60 62 70 91 97 98 96 72 67

GFSNIL_sfc_rhum_156.txt.gz
RH
91 94 93 91 90 87 84 82 81 82 72 66 67 75 72 88 94 91 94 89 94 94
91 92 90 91 90 86 84 76 82 79 67 63 67 73 71 81 89 90 93 92 93 93
90 91 90 92 90 87 84 83 80 71 65 65 67 71 73 76 85 88 92 92 89 93
93 92 92 93 89 86 84 82 80 72 66 65 66 69 76 74 80 85 86 85 84 86
92 93 94 94 92 90 86 82 78 71 67 65 66 69 74 75 69 82 88 86 86 85
87 92 94 94 93 92 89 84 76 69 68 65 66 68 74 74 71 75 82 84 85 83
80 88 93 93 93 93 91 86 77 68 61 62 60 63 68 67 69 72 75 81 85 84
80 88 92 93 93 93 93 88 82 72 64 59 56 53 69 71 74 69 70 72 80 83
83 88 90 91 92 93 93 92 85 77 70 70 50 53 59 72 78 75 72 76 80 79
82 82 84 88 89 90 91 91 87 80 76 68 62 58 59 64 79 78 77 82 78 72
81 81 81 83 85 89 91 89 87 83 77 71 63 63 62 64 89 83 83 81 76 73
86 88 89 90 90 91 93 91 87 80 80 77 68 64 65 64 90 82 78 76 74 72
85 89 91 92 92 92 93 92 90 86 84 77 75 67 64 67 81 84 81 94 95 91
84 89 90 93 94 94 94 94 94 93 90 85 77 77 66 65 79 80 92 96 97 94

GFSNIL_sfc_rhum_159.txt.gz
RH
73 74 72 72 71 70 69 65 62 62 64 59 53 55 60 59 66 73 74 76 78 75
74 77 76 74 73 72 70 65 65 66 65 58 52 54 59 58 60 68 73 80 79 76
72 75 76 77 77 76 70 70 67 65 64 59 54 53 58 60 61 68 72 74 77 77
66 72 77 79 77 76 73 72 70 67 64 58 53 52 55 59 60 67 70 72 74 72
65 68 72 76 78 76 75 73 71 69 65 60 56 52 54 58 54 61 68 70 71 69
63 67 69 73 78 79 78 75 72 70 67 62 58 54 54 54 57 59 62 66 70 68
66 69 73 78 80 82 80 79 76 71 65 62 56 53 51 52 55 56 57 63 70 69
68 70 73 75 78 79 80 81 80 76 70 62 56 52 53 54 56 57 58 62 66 71
68 70 71 72 74 74 75 74 76 76 76 76 62 60 62 60 55 59 61 62 62 65
71 72 73 73 73 73 73 75 75 74 74 71 66 71 67 65 67 64 65 66 63 63
73 75 75 76 76 76 75 77 77 74 73 72 68 72 71 70 65 72 70 65 64 63
76 78 78 79 79 78 79 78 79 77 78 76 70 73 72 69 66 75 73 66 65 64
76 79 79 80 81 80 81 80 79 78 76 79 73 74 74 69 69 78 77 72 68 72
74 78 78 81 82 82 80 80 79 76 71 69 69 70 74 71 72 74 79 79 83 85

GFSNIL_sfc_rhum_162.txt.gz
RH
52 52 51 50 52 52 52 50 49 49 47 46 44 42 40 43 44 46 52 54 55 55
44 48 50 51 51 53 53 52 53 53 50 48 46 42 39 39 40 42 48 56 61 59
42 43 46 48 53 55 55 56 56 54 52 50 48 43 41 41 42 45 46 49 56 57
43 44 44 46 48 52 57 58 58 56 54 53 49 46 43 41 41 44 45 48 53 55
44 46 46 44 47 50 57 57 59 58 57 55 53 49 46 45 40 41 44 46 51 52
44 46 47 50 53 56 58 57 56 59 59 57 56 53 49 45 42 42 42 43 46 49
44 45 46 48 51 56 58 58 56 56 56 57 56 54 51 47 43 40 39 41 46 46
46 47 48 48 48 48 50 53 55 57 56 55 56 54 54 53 49 46 43 42 44 49
48 50 51 53 54 52 52 49 50 51 55 62 57 70 70 65 55 50 46 45 43 45
50 51 54 53 53 55 55 54 54 53 54 53 51 68 72 75 62 58 52 48 45 45
52 53 53 54 55 55 54 56 57 56 56 57 55 68 74 74 64 61 59 55 50 48
52 54 53 55 56 57 58 57 57 56 59 58 54 68 74 72 61 60 58 57 54 57
55 56 56 57 58 60 58 57 57 57 55 60 56 61 69 71 59 59 61 59 60 69
54 56 55 58 58 60 60 60 58 56 50 49 50 53 67 72 63 60 62 64 65 62

GFSNIL_sfc_rhum_165.txt.gz
RH
48 46 44 44 47 48 50 51 50 51 50 48 45 46 45 48 50 48 55 57 56 53
40 43 46 45 45 48 48 49 51 54 54 50 49 48 46 44 45 46 52 59 62 59
39 39 41 42 44 46 47 50 54 56 54 53 53 50 49 49 46 46 50 49 53 58
41 42 41 42 41 42 46 50 55 56 56 55 54 52 52 49 48 47 48 47 51 55
40 42 42 42 45 45 49 50 55 57 57 56 56 55 54 54 49 47 49 48 50 52
38 40 40 42 44 46 50 52 52 54 56 55 57 56 56 54 52 51 49 48 48 49
39 41 41 42 42 42 44 48 50 50 50 52 53 54 54 54 54 51 48 48 48 46
42 42 44 46 46 46 46 46 46 47 48 49 50 50 55 56 58 58 55 52 47 49
43 44 46 48 49 48 50 48 48 50 53 60 50 62 73 70 64 60 59 58 53 47
44 46 47 48 48 50 51 50 51 51 51 52 51 68 69 73 70 68 65 62 58 52
45 46 47 49 50 50 50 54 54 54 53 56 54 69 68 73 70 66 65 64 62 58
46 48 49 51 52 52 54 56 56 53 56 56 54 67 66 69 65 63 61 58 57 61
49 51 53 54 56 54 55 54 55 56 55 59 55 62 62 66 63 63 62 59 58 70
49 52 50 52 52 55 56 57 59 56 50 47 50 52 59 68 68 64 65 65 66 66

GFSNIL_sfc_rhum_168.txt.gz
RH
69 71 68 66 68 72 73 74 70 72 72 68 64 65 63 66 68 67 70 70 74 73
58 59 63 62 64 70 68 63 66 72 75 71 68 65 64 67 64 63 65 70 74 76
55 56 58 61 62 62 64 64 70 75 76 75 73 70 69 69 64 63 67 65 71 75
60 58 59 62 62 63 64 65 69 74 76 76 75 73 73 71 67 66 66 63 64 69
56 57 60 60 61 64 68 69 72 74 75 76 76 75 75 75 65 68 68 67 66 67
54 56 57 58 58 57 62 67 69 69 73 74 74 76 77 76 75 74 72 68 67 66
57 58 60 60 60 61 61 62 63 64 64 66 67 68 70 71 76 76 71 69 69 65
56 57 60 62 63 63 64 64 65 64 64 64 64 60 72 74 78 81 80 75 69 67
56 58 60 63 65 65 66 66 66 68 70 74 63 66 71 78 88 84 81 81 78 71
56 59 62 62 64 66 69 70 71 71 70 71 71 69 72 74 85 89 89 87 82 76
58 61 61 64 66 68 69 70 73 73 71 72 66 71 73 70 84 88 86 83 84 85
60 62 65 67 69 69 71 74 76 71 73 75 74 70 71 71 82 81 81 74 77 76
63 66 68 69 72 71 72 70 74 72 74 73 76 71 72 66 81 87 79 80 76 71
62 63 65 67 68 70 73 74 78 76 73 72 69 68 62 62 78 84 83 86 85 72

GFSNIL_sfc_rhum_171.txt.gz
RH
74 81 76 72 73 74 78 79 77 79 82 78 74 74 74 74 72 71 75 72 76 78
63 63 66 66 69 72 72 66 67 75 79 82 77 74 72 73 70 68 71 75 75 79
59 61 63 66 66 68 69 68 71 75 81 84 83 80 77 77 73 70 73 71 74 78
62 62 63 67 68 70 72 73 76 78 82 83 84 83 83 81 76 74 73 71 70 71
62 62 63 63 64 65 68 72 75 77 81 82 81 83 85 85 77 78 78 76 74 73
60 61 62 63 63 63 65 65 67 69 73 74 76 80 81 84 86 86 84 80 77 74
61 62 64 65 66 67 68 70 70 69 67 68 69 71 74 76 82 86 84 82 82 78
61 61 64 65 68 68 69 69 72 72 71 73 72 66 75 79 82 85 85 85 83 81
60 61 64 66 69 70 70 72 72 73 76 78 66 70 74 76 88 88 90 93 90 86
60 62 65 66 68 71 73 76 76 77 77 77 76 68 72 77 85 88 93 94 93 88
63 64 66 68 70 73 74 74 76 77 76 77 69 68 71 74 82 85 87 90 91 92
67 66 69 72 74 74 77 76 76 73 76 76 71 72 74 77 84 83 86 82 83 86
65 68 71 72 73 73 73 70 73 70 73 74 75 71 72 77 79 90 88 89 85 78
64 66 66 69 72 71 72 76 80 78 72 74 73 73 70 71 78 87 91 92 92 87

GFSNIL_sfc_rhum_177.txt.gz
RH
82 85 85 84 79 80 80 79 78 78 81 84 88 90 90 90 87 82 81 78 79 79
86 84 78 72 74 75 75 68 73 80 83 86 89 90 89 91 89 84 82 83 81 81
75 69 70 71 69 73 76 77 81 84 87 89 89 90 90 92 90 86 85 81 82 82
69 68 69 72 73 74 75 75 76 79 82 86 88 89 90 91 91 91 91 88 85 83
67 69 71 69 67 70 70 71 72 73 74 76 77 80 86 88 89 91 92 91 91 90
65 67 67 68 69 71 73 73 74 75 76 76 76 78 79 82 85 87 90 91 92 92
65 68 69 70 72 73 74 75 75 77 77 76 78 78 78 80 86 88 87 88 89 90
65 69 70 70 71 73 75 74 77 78 77 79 78 70 80 87 88 89 89 89 88 87
65 68 69 70 72 75 75 76 78 78 80 83 72 70 72 78 91 91 92 90 87 88
66 67 69 71 74 75 76 80 81 82 82 81 82 70 70 72 89 92 92 90 88 81
70 71 72 75 77 80 81 81 82 82 81 82 74 68 70 71 88 92 92 90 88 89
74 76 76 76 77 79 82 82 82 79 80 82 77 69 71 73 90 92 92 90 86 89
76 73 74 75 76 78 83 81 81 76 78 75 80 69 68 69 90 94 91 88 88 79
69 69 71 73 76 77 79 80 79 77 74 76 75 78 69 67 81 92 92 92 89 90